Regional Weather Roundup
Issued by NWS

Home | Current Version | Previous Version | Graphics & Text | Print | Product List | Glossary On
Versions: 1 2 3 4 5 6 7 8 9 10 11 12 13 14 15 16 17 18 19 20 21 22 23 24 25 26 27 28 29 30 31 32 33 34 35 36 37 38 39 40 41 42 43 44 45 46 47 48 49 50
000
ASUS43 KLMK 040202
RWRKY
KENTUCKY REGIONAL WEATHER ROUNDUP
NATIONAL WEATHER SERVICE LOUISVILLE KY
1000 PM EDT MON AUG 03 2015

NOTE "FAIR" INDICATES FEW OR NO CLOUDS BELOW 12,000 FEET
WITH NO SIGNIFICANT WEATHER AND/OR OBSTRUCTIONS TO VISIBILITY.

KYZ001>023-026-027-061>063-070>075-040300-
WESTERN AND SOUTH CENTRAL KENTUCKY

CITY           SKY/WX    TMP DP  RH WIND       PRES   REMARKS
PADUCAH        CLEAR     80  73  79 CALM      29.90R
HENDERSON      CLEAR     77  70  78 CALM      29.88R
OWENSBORO      CLEAR     80  75  84 SW5       29.90R
HOPKINSVILLE   CLEAR     81  73  74 SW5       29.92R
BOWLING GREEN  CLEAR     85  72  65 SW6       29.91R HX  91
GLASGOW        NOT AVBL
$$

KYZ024-025-028>034-038-045-046-053-040300-
NORTH CENTRAL KENTUCKY

CITY           SKY/WX    TMP DP  RH WIND       PRES   REMARKS
LOUISVILLE/SDF PTCLDY    85  69  58 W9        29.87R
LOUISVILLE/LOU PTCLDY    85  69  58 W6        29.88R
FORT KNOX      PTCLDY    80  71  75 SW5       29.88R
$$

KYZ035>037-039>044-047>052-055>060-089>105-040300-
NORTHEAST KENTUCKY

CITY           SKY/WX    TMP DP  RH WIND       PRES   REMARKS
LEXINGTON      PTCLDY    80  70  71 SW7       29.90R
COVINGTON      MOCLDY    69  66  90 S3        29.89R
FRANKFORT      CLEAR     81  68  64 W3        29.88R
$$

KYZ054-064>069-076>088-106>120-040300-
SOUTHEAST KENTUCKY

CITY           SKY/WX    TMP DP  RH WIND       PRES   REMARKS
JACKSON        MOCLDY    79  69  71 CALM      29.94R
LONDON         PTCLDY    80  67  64 S5        29.95R
SOMERSET       NOT AVBL
MIDDLESBORO    CLEAR     74  70  86 CALM      29.97R
MONTICELLO     CLEAR     74  72  93 CALM      29.95S
$$



USA.gov is the U.S. government's official web portal to all federal, state and local government web resources and services.